Weather History for MMLO - March, 2013

Change the Weather History Date:

Saturday, March 23, 2013

  Actual Average Record
Temperature  
Mean Temperature 68 °F -  
Max Temperature 87 °F 82 °F 91 °F (2009)
Min Temperature 48 °F 49 °F 44 °F (1998)
Cooling Degree Days 2    
Growing Degree Days 18 (Base 50)    
Moisture  
Dew Point 25 °F    
Average Humidity 23    
Maximum Humidity 50    
Minimum Humidity 9    
Precipitation  
Precipitation 0.00 in - - ()
Sea Level Pressure  
Sea Level Pressure 30.01 in    
Wind  
Wind Speed 6 mph ()    
Max Wind Speed 22 mph    
Max Gust Speed 32 mph    
Visibility 8.8 miles    
Events      
Averages and records for this station are not official NWS values.
T = Trace of Precipitation, MM = Missing Value Source: Averaged Metar Reports

Daily Weather History Graph

Daily Weather History Graph

Search for Another Location

Airport or City:

Trip Planner

Search our weather history database for the weather conditions in past years. The results will help you decide how hot, cold, wet, or windy it might be!

Date:

Astronomy

Mar. 23, 2013 Rise Set
Actual Time 6:46 AM CST 6:58 PM CST
Civil Twilight 6:24 AM CST 7:20 PM CST
Nautical Twilight 5:59 AM CST 7:45 PM CST
Astronomical Twilight 5:33 AM CST 8:11 PM CST
Moon 3:49 PM CST (3/23) 3:59 AM CST (3/23)
Length of Visible Light 12h 55m
Length of Day
12h 11m
Waxing Gibbous, 85% of the Moon is Illuminated
Mar 23
Waxing Gibbous
Mar 27
Full
Apr 2
Last Quarter
Apr 10
New
Apr 18
First Quarter

Hourly Weather History & Observations

Time (CST) Temp. Dew Point Humidity Pressure Visibility Wind Dir Wind Speed Gust Speed Precip Events Conditions
12:50 AM 57.2 °F 26.6 °F 31% 30.18 in 8.0 mi Calm Calm - N/A   Clear
1:44 AM 55.4 °F 26.6 °F 33% 30.18 in 8.0 mi Calm Calm - N/A   Clear
2:50 AM 53.6 °F 26.6 °F 35% 29.73 in 8.0 mi North 5.8 mph - N/A   Clear
3:43 AM 51.8 °F 26.6 °F 38% 30.14 in 8.0 mi Calm Calm - N/A   Clear
5:46 AM 48.2 °F 28.4 °F 46% 29.83 in 8.0 mi NNE 6.9 mph - N/A   Clear
6:40 AM 48.2 °F 30.2 °F 50% 30.16 in 10.0 mi NE 5.8 mph - N/A   Clear
7:45 AM 55.4 °F 32.0 °F 41% 30.19 in 7.0 mi Calm Calm - N/A   Clear
8:43 AM 66.2 °F 32.0 °F 28% 29.88 in 8.0 mi Calm Calm - N/A   Clear
9:47 AM 73.4 °F 32.0 °F 22% 30.24 in 9.0 mi West 3.5 mph - N/A   Clear
10:47 AM 77.0 °F 26.6 °F 16% 30.24 in 9.0 mi WSW 6.9 mph - N/A   Clear
11:53 AM 82.4 °F 28.4 °F 14% 29.79 in 10.0 mi NW 9.2 mph - N/A   Clear
12:48 PM 84.2 °F 24.8 °F 11% 30.12 in 10.0 mi WSW 16.1 mph 27.6 mph N/A   Clear
1:42 PM 87.8 °F 21.2 °F 9% 30.09 in 10.0 mi West 20.7 mph - N/A   Clear
2:44 PM 87.8 °F 21.2 °F 9% 29.67 in 10.0 mi West 18.4 mph 32.2 mph N/A   Clear
3:40 PM 87.8 °F 21.2 °F 9% 30.06 in 10.0 mi West 16.1 mph 32.2 mph N/A   Clear
4:42 PM 86.0 °F 19.4 °F 9% 30.06 in 10.0 mi WSW 20.7 mph 32.2 mph N/A   Clear
5:40 PM 82.4 °F 19.4 °F 10% 29.70 in 10.0 mi West 21.9 mph - N/A   Clear
6:45 PM 78.8 °F 21.2 °F 12% 30.06 in 10.0 mi West 19.6 mph - N/A   Clear
7:40 PM 71.6 °F 23.0 °F 16% 30.09 in 8.0 mi West 9.2 mph - N/A   Clear
8:43 PM 69.8 °F 26.6 °F 20% 29.78 in 8.0 mi West 10.4 mph - N/A   Clear
9:44 PM 66.2 °F 23.0 °F 19% 30.15 in 8.0 mi West 6.9 mph - N/A   Clear
10:42 PM 60.8 °F 23.0 °F 23% 30.18 in 8.0 mi North 4.6 mph - N/A   Clear
11:43 PM 57.2 °F 23.0 °F 27% 29.81 in 8.0 mi WSW 6.9 mph - N/A   Clear